Year,Month,Day,Hour,Minute,Value (Times are PST for temperature in C)
2016,06,04,00,00,16.80
2016,06,04,00,01,16.80
2016,06,04,00,02,16.80
2016,06,04,00,03,16.80
2016,06,04,00,04,16.70
2016,06,04,00,05,16.70
2016,06,04,00,06,16.70
2016,06,04,00,07,16.70
2016,06,04,00,08,16.70
2016,06,04,00,09,16.70
2016,06,04,00,10,16.60
2016,06,04,00,11,16.60
2016,06,04,00,12,16.60
2016,06,04,00,13,16.60
2016,06,04,00,14,16.60
2016,06,04,00,15,16.60
2016,06,04,00,16,16.60
2016,06,04,00,17,16.60
2016,06,04,00,18,16.60
2016,06,04,00,19,16.60
2016,06,04,00,20,16.60
2016,06,04,00,21,16.50
2016,06,04,00,22,16.50
2016,06,04,00,23,16.50
2016,06,04,00,24,16.50
2016,06,04,00,25,16.50
2016,06,04,00,26,16.50
2016,06,04,00,27,16.50
2016,06,04,00,28,16.50
2016,06,04,00,29,16.50
2016,06,04,00,30,16.40
2016,06,04,00,31,16.40
2016,06,04,00,32,16.40
2016,06,04,00,33,16.40
2016,06,04,00,34,16.40
2016,06,04,00,35,16.40
2016,06,04,00,36,16.40
2016,06,04,00,37,16.40
2016,06,04,00,38,16.40
2016,06,04,00,39,16.40
2016,06,04,00,40,16.30
2016,06,04,00,41,16.40
2016,06,04,00,42,16.30
2016,06,04,00,43,16.30
2016,06,04,00,44,16.30
2016,06,04,00,45,16.30
2016,06,04,00,46,16.30
2016,06,04,00,47,16.30
2016,06,04,00,48,16.30
2016,06,04,00,49,16.30
2016,06,04,00,50,16.30
2016,06,04,00,51,16.30
2016,06,04,00,52,16.30
2016,06,04,00,53,16.30
2016,06,04,00,54,16.30
2016,06,04,00,55,16.40
2016,06,04,00,56,16.40
2016,06,04,00,57,16.40
2016,06,04,00,58,16.40
2016,06,04,00,59,16.50
2016,06,04,01,00,16.50
2016,06,04,01,01,16.50
2016,06,04,01,02,16.60
2016,06,04,01,03,16.60
2016,06,04,01,04,16.60
2016,06,04,01,05,16.60
2016,06,04,01,06,16.60
2016,06,04,01,07,16.50
2016,06,04,01,08,16.50
2016,06,04,01,09,16.50
2016,06,04,01,10,16.40
2016,06,04,01,11,16.40
2016,06,04,01,12,16.40
2016,06,04,01,13,16.40
2016,06,04,01,14,16.30
2016,06,04,01,15,16.30
2016,06,04,01,16,16.30
2016,06,04,01,17,16.30
2016,06,04,01,18,16.20
2016,06,04,01,19,16.20
2016,06,04,01,20,16.20
2016,06,04,01,21,16.20
2016,06,04,01,22,16.20
2016,06,04,01,23,16.20
2016,06,04,01,24,16.30
2016,06,04,01,25,16.30
2016,06,04,01,26,16.30
2016,06,04,01,27,16.30
2016,06,04,01,28,16.40
2016,06,04,01,29,16.40
2016,06,04,01,30,16.40
2016,06,04,01,31,16.40
2016,06,04,01,32,16.50
2016,06,04,01,33,16.50
2016,06,04,01,34,16.60
2016,06,04,01,35,16.60
2016,06,04,01,36,16.60
2016,06,04,01,37,16.70
2016,06,04,01,38,16.70
2016,06,04,01,39,16.70
2016,06,04,01,40,16.70
2016,06,04,01,41,16.70
2016,06,04,01,42,16.70
2016,06,04,01,43,16.80
2016,06,04,01,44,16.80
2016,06,04,01,45,16.80
2016,06,04,01,46,16.80
2016,06,04,01,47,16.80
2016,06,04,01,48,16.70
2016,06,04,01,49,16.70
2016,06,04,01,50,16.70
2016,06,04,01,51,16.70
2016,06,04,01,52,16.70
2016,06,04,01,53,16.70
2016,06,04,01,54,16.70
2016,06,04,01,55,16.70
2016,06,04,01,56,16.70
2016,06,04,01,57,16.70
2016,06,04,01,58,16.70
2016,06,04,01,59,16.70
2016,06,04,02,00,16.70
2016,06,04,02,01,16.60
2016,06,04,02,02,16.60
2016,06,04,02,03,16.60
2016,06,04,02,04,16.60
2016,06,04,02,05,16.50
2016,06,04,02,06,16.50
2016,06,04,02,07,16.50
2016,06,04,02,08,16.50
2016,06,04,02,09,16.40
2016,06,04,02,10,16.40
2016,06,04,02,11,16.40
2016,06,04,02,12,16.40
2016,06,04,02,13,16.40
2016,06,04,02,14,16.40
2016,06,04,02,15,16.30
2016,06,04,02,16,16.30
2016,06,04,02,17,16.30
2016,06,04,02,18,16.30
2016,06,04,02,19,16.30
2016,06,04,02,20,16.20
2016,06,04,02,21,16.20
2016,06,04,02,22,16.20
2016,06,04,02,23,16.20
2016,06,04,02,24,16.10
2016,06,04,02,25,16.10
2016,06,04,02,26,16.10
2016,06,04,02,27,16.10
2016,06,04,02,28,16.10
2016,06,04,02,29,16.00
2016,06,04,02,30,16.00
2016,06,04,02,31,16.00
2016,06,04,02,32,15.90
2016,06,04,02,33,15.90
2016,06,04,02,34,15.90
2016,06,04,02,35,15.90
2016,06,04,02,36,15.90
2016,06,04,02,37,15.80
2016,06,04,02,38,15.80
2016,06,04,02,39,15.80
2016,06,04,02,40,15.80
2016,06,04,02,41,15.80
2016,06,04,02,42,15.80
2016,06,04,02,43,15.80
2016,06,04,02,44,15.80
2016,06,04,02,45,15.80
2016,06,04,02,46,15.80
2016,06,04,02,47,15.80
2016,06,04,02,48,15.80
2016,06,04,02,49,15.80
2016,06,04,02,50,15.80
2016,06,04,02,51,15.80
2016,06,04,02,52,15.80
2016,06,04,02,53,15.80
2016,06,04,02,54,15.80
2016,06,04,02,55,15.80
2016,06,04,02,56,15.80
2016,06,04,02,57,15.80
2016,06,04,02,58,15.80
2016,06,04,02,59,15.80
2016,06,04,03,00,15.80
2016,06,04,03,01,15.70
2016,06,04,03,02,15.70
2016,06,04,03,03,15.70
2016,06,04,03,04,15.70
2016,06,04,03,05,15.60
2016,06,04,03,06,15.60
2016,06,04,03,07,15.60
2016,06,04,03,08,15.60
2016,06,04,03,09,15.50
2016,06,04,03,10,15.50
2016,06,04,03,11,15.50
2016,06,04,03,12,15.50
2016,06,04,03,13,15.40
2016,06,04,03,14,15.40
2016,06,04,03,15,15.40
2016,06,04,03,16,15.40
2016,06,04,03,17,15.40
2016,06,04,03,18,15.40
2016,06,04,03,19,15.40
2016,06,04,03,20,15.30
2016,06,04,03,21,15.30
2016,06,04,03,22,15.30
2016,06,04,03,23,15.30
2016,06,04,03,24,15.30
2016,06,04,03,25,15.20
2016,06,04,03,26,15.20
2016,06,04,03,27,15.20
2016,06,04,03,28,15.20
2016,06,04,03,29,15.20
2016,06,04,03,30,15.20
2016,06,04,03,31,15.10
2016,06,04,03,32,15.10
2016,06,04,03,33,15.10
2016,06,04,03,34,15.10
2016,06,04,03,35,15.10
2016,06,04,03,36,15.10
2016,06,04,03,37,15.10
2016,06,04,03,38,15.10
2016,06,04,03,39,15.10
2016,06,04,03,40,15.10
2016,06,04,03,41,15.10
2016,06,04,03,42,15.10
2016,06,04,03,43,15.10
2016,06,04,03,44,15.10
2016,06,04,03,45,15.10
2016,06,04,03,46,15.10
2016,06,04,03,47,15.10
2016,06,04,03,48,15.10
2016,06,04,03,49,15.10
2016,06,04,03,50,15.10
2016,06,04,03,51,15.00
2016,06,04,03,52,15.00
2016,06,04,03,53,15.00
2016,06,04,03,54,15.00
2016,06,04,03,55,15.00
2016,06,04,03,56,15.00
2016,06,04,03,57,15.00
2016,06,04,03,58,15.00
2016,06,04,03,59,14.90
2016,06,04,04,00,14.90
2016,06,04,04,01,14.90
2016,06,04,04,02,14.90
2016,06,04,04,03,14.90
2016,06,04,05,04,13.80
2016,06,04,05,05,13.80
2016,06,04,05,06,13.80
2016,06,04,05,07,13.80
2016,06,04,05,08,13.80
2016,06,04,05,09,13.80
2016,06,04,05,10,13.80
2016,06,04,05,11,13.80
2016,06,04,05,12,13.80
2016,06,04,05,13,13.80
2016,06,04,05,14,13.80
2016,06,04,05,15,13.80
2016,06,04,05,16,13.80
2016,06,04,05,17,13.80
2016,06,04,05,18,13.80
2016,06,04,05,19,13.80
2016,06,04,05,20,13.80
2016,06,04,05,21,13.80
2016,06,04,05,22,13.80
2016,06,04,05,23,13.80
2016,06,04,05,24,13.80
2016,06,04,05,25,13.80
2016,06,04,05,26,13.80
2016,06,04,05,27,13.80
2016,06,04,05,28,13.80
2016,06,04,05,29,13.80
2016,06,04,05,30,13.80
2016,06,04,05,31,13.80
2016,06,04,05,32,13.80
2016,06,04,05,33,13.80
2016,06,04,05,34,13.80
2016,06,04,05,35,13.80
2016,06,04,05,36,13.80
2016,06,04,05,37,13.80
2016,06,04,05,38,13.80
2016,06,04,05,39,13.80
2016,06,04,05,40,13.80
2016,06,04,05,41,13.80
2016,06,04,05,42,13.80
2016,06,04,05,43,13.80
2016,06,04,05,44,13.80
2016,06,04,05,45,13.90
2016,06,04,05,46,13.90
2016,06,04,05,47,13.90
2016,06,04,05,48,13.90
2016,06,04,05,49,13.90
2016,06,04,05,50,13.90
2016,06,04,05,51,13.90
2016,06,04,05,52,13.90
2016,06,04,05,53,13.90
2016,06,04,05,54,13.90
2016,06,04,05,55,13.90
2016,06,04,05,56,13.90
2016,06,04,05,57,13.90
2016,06,04,05,58,13.80
2016,06,04,05,59,13.80
2016,06,04,06,00,13.80
2016,06,04,06,01,13.80
2016,06,04,06,02,13.80
2016,06,04,06,03,13.80
2016,06,04,06,04,13.80
2016,06,04,06,05,13.80
2016,06,04,06,06,13.80
2016,06,04,06,07,13.80
2016,06,04,06,08,13.80
2016,06,04,06,09,13.80
2016,06,04,06,10,13.90
2016,06,04,06,11,13.90
2016,06,04,06,12,13.90
2016,06,04,06,13,13.90
2016,06,04,06,14,13.90
2016,06,04,06,15,13.90
2016,06,04,06,16,13.90
2016,06,04,06,17,13.90
2016,06,04,06,18,13.90
2016,06,04,06,19,13.90
2016,06,04,06,20,13.90
2016,06,04,06,21,13.90
2016,06,04,06,22,13.90
2016,06,04,06,23,13.90
2016,06,04,06,24,13.90
2016,06,04,06,25,13.90
2016,06,04,06,26,13.90
2016,06,04,06,27,13.90
2016,06,04,06,28,13.90
2016,06,04,06,29,14.00
2016,06,04,06,30,14.00
2016,06,04,06,31,14.10
2016,06,04,06,32,14.10
2016,06,04,06,33,14.20
2016,06,04,06,34,14.20
2016,06,04,06,35,14.30
2016,06,04,06,36,14.40
2016,06,04,06,37,14.50
2016,06,04,06,38,14.60
2016,06,04,06,39,14.70
2016,06,04,06,40,14.70
2016,06,04,06,41,14.80
2016,06,04,06,42,14.90
2016,06,04,06,43,14.90
2016,06,04,06,44,15.00
2016,06,04,06,45,15.00
2016,06,04,06,46,15.10
2016,06,04,06,47,15.20
2016,06,04,06,48,15.20
2016,06,04,06,49,15.30
2016,06,04,06,50,15.30
2016,06,04,06,51,15.40
2016,06,04,06,52,15.40
2016,06,04,06,53,15.50
2016,06,04,06,54,15.60
2016,06,04,06,55,15.60
2016,06,04,06,56,15.70
2016,06,04,06,57,15.70
2016,06,04,06,58,15.80
2016,06,04,06,59,15.90
2016,06,04,07,00,15.90
2016,06,04,07,01,16.00
2016,06,04,07,02,16.10
2016,06,04,07,03,16.10
2016,06,04,07,04,16.20
2016,06,04,07,05,16.30
2016,06,04,07,06,16.30
2016,06,04,07,07,16.40
2016,06,04,07,08,16.50
2016,06,04,07,09,16.60
2016,06,04,07,10,16.60
2016,06,04,07,11,16.70
2016,06,04,07,12,16.80
2016,06,04,07,13,16.80
2016,06,04,07,14,16.90
2016,06,04,07,15,16.90
2016,06,04,07,16,16.90
2016,06,04,07,17,17.00
2016,06,04,07,18,17.10
2016,06,04,07,19,17.10
2016,06,04,07,20,17.20
2016,06,04,07,21,17.30
2016,06,04,07,22,17.30
2016,06,04,07,23,17.40
2016,06,04,07,24,17.50
2016,06,04,07,25,17.50
2016,06,04,07,26,17.60
2016,06,04,07,27,17.60
2016,06,04,07,28,17.70
2016,06,04,07,29,17.80
2016,06,04,07,30,17.80
2016,06,04,07,31,17.90
2016,06,04,07,32,18.00
2016,06,04,07,33,18.10
2016,06,04,07,34,18.20
2016,06,04,07,35,18.20
2016,06,04,07,36,18.30
2016,06,04,07,37,18.40
2016,06,04,07,38,18.50
2016,06,04,07,39,18.50
2016,06,04,07,40,18.60
2016,06,04,07,41,18.60
2016,06,04,07,42,18.60
2016,06,04,07,43,18.60
2016,06,04,07,44,18.70
2016,06,04,07,45,18.70
2016,06,04,07,46,18.70
2016,06,04,07,47,18.70
2016,06,04,07,48,18.70
2016,06,04,07,49,18.70
2016,06,04,07,50,18.70
2016,06,04,07,51,18.70
2016,06,04,07,52,18.80
2016,06,04,07,53,18.80
2016,06,04,07,54,18.80
2016,06,04,07,55,18.80
2016,06,04,07,56,18.90
2016,06,04,07,57,18.90
2016,06,04,07,58,18.90
2016,06,04,07,59,18.90
2016,06,04,08,00,18.90
2016,06,04,08,01,18.90
2016,06,04,08,02,18.90
2016,06,04,08,03,19.00
2016,06,04,08,04,19.00
2016,06,04,08,05,19.10
2016,06,04,08,06,19.10
2016,06,04,08,07,19.20
2016,06,04,08,08,19.20
2016,06,04,08,09,19.30
2016,06,04,08,10,19.30
2016,06,04,08,11,19.30
2016,06,04,08,12,19.30
2016,06,04,08,13,19.30
2016,06,04,08,14,19.30
2016,06,04,08,15,19.30
2016,06,04,08,16,19.30
2016,06,04,08,17,19.30
2016,06,04,08,18,19.30
2016,06,04,08,19,19.30
2016,06,04,08,20,19.30
2016,06,04,08,21,19.30
2016,06,04,08,22,19.40
2016,06,04,08,23,19.40
2016,06,04,08,24,19.40
2016,06,04,08,25,19.40
2016,06,04,08,26,19.40
2016,06,04,08,27,19.40
2016,06,04,08,28,19.40
2016,06,04,08,29,19.40
2016,06,04,08,30,19.40
2016,06,04,08,31,19.40
2016,06,04,08,32,19.40
2016,06,04,08,33,19.40
2016,06,04,08,34,19.40
2016,06,04,08,35,19.40
2016,06,04,08,36,19.50
2016,06,04,08,37,19.50
2016,06,04,08,38,19.60
2016,06,04,08,39,19.60
2016,06,04,08,40,19.70
2016,06,04,08,41,19.70
2016,06,04,08,42,19.70
2016,06,04,08,43,19.70
2016,06,04,08,44,19.70
2016,06,04,08,45,19.70
2016,06,04,08,46,19.70
2016,06,04,08,47,19.70
2016,06,04,08,48,19.70
2016,06,04,08,49,19.70
2016,06,04,08,50,19.70
2016,06,04,08,51,19.70
2016,06,04,08,52,19.70
2016,06,04,08,53,19.80
2016,06,04,08,54,19.80
2016,06,04,08,55,19.80
2016,06,04,08,56,19.80
2016,06,04,08,57,19.90
2016,06,04,08,58,19.90
2016,06,04,08,59,19.90
2016,06,04,09,00,19.90
2016,06,04,09,01,20.00
2016,06,04,09,02,20.00
2016,06,04,09,03,20.00
2016,06,04,09,04,20.00
2016,06,04,09,05,19.90
2016,06,04,09,06,19.90
2016,06,04,09,07,19.90
2016,06,04,09,08,19.90
2016,06,04,09,09,19.90
2016,06,04,09,10,19.90
2016,06,04,09,11,19.90
2016,06,04,09,12,20.00
2016,06,04,09,13,20.00
2016,06,04,09,14,20.10
2016,06,04,09,15,20.10
2016,06,04,09,16,20.10
2016,06,04,09,17,20.20
2016,06,04,09,18,20.20
2016,06,04,09,19,20.20
2016,06,04,09,20,20.30
2016,06,04,09,21,20.30
2016,06,04,09,22,20.40
2016,06,04,09,23,20.40
2016,06,04,09,24,20.50
2016,06,04,09,25,20.60
2016,06,04,09,26,20.60
2016,06,04,09,27,20.70
2016,06,04,09,28,20.70
2016,06,04,09,29,20.80
2016,06,04,09,30,20.80
2016,06,04,09,31,20.80
2016,06,04,09,32,20.80
2016,06,04,09,33,20.80
2016,06,04,09,34,20.80
2016,06,04,09,35,20.80
2016,06,04,09,36,20.80
2016,06,04,09,37,20.80
2016,06,04,09,38,20.80
2016,06,04,09,39,20.90
2016,06,04,09,40,20.90
2016,06,04,09,41,20.90
2016,06,04,09,42,21.00
2016,06,04,09,43,21.00
2016,06,04,09,44,21.10
2016,06,04,09,45,21.10
2016,06,04,09,46,21.10
2016,06,04,09,47,21.10
2016,06,04,09,48,21.10
2016,06,04,09,49,21.10
2016,06,04,09,50,21.10
2016,06,04,09,51,21.10
2016,06,04,09,52,21.20
2016,06,04,09,53,21.20
2016,06,04,09,54,21.20
2016,06,04,09,55,21.20
2016,06,04,09,56,21.20
2016,06,04,09,57,21.20
2016,06,04,09,58,21.20
2016,06,04,09,59,21.10
2016,06,04,10,00,21.10
2016,06,04,10,01,21.10
2016,06,04,10,02,21.10
2016,06,04,10,03,21.00
2016,06,04,10,04,21.00
2016,06,04,10,05,21.00
2016,06,04,10,06,20.90
2016,06,04,10,07,20.90
2016,06,04,10,08,20.90
2016,06,04,10,09,21.00
2016,06,04,10,10,21.10
2016,06,04,10,11,21.10
2016,06,04,10,12,21.20
2016,06,04,10,13,21.20
2016,06,04,10,14,21.20
2016,06,04,10,15,21.30
2016,06,04,10,16,21.30
2016,06,04,10,17,21.30
2016,06,04,10,18,21.30
2016,06,04,10,19,21.30
2016,06,04,10,20,21.30
2016,06,04,10,21,21.20
2016,06,04,10,22,21.10
2016,06,04,10,23,21.10
2016,06,04,10,24,21.00
2016,06,04,10,25,21.00
2016,06,04,10,26,21.00
2016,06,04,10,27,21.10
2016,06,04,10,28,21.10
2016,06,04,10,29,21.10
2016,06,04,10,30,21.10
2016,06,04,10,31,21.10
2016,06,04,10,32,21.10
2016,06,04,10,33,21.10
2016,06,04,10,34,21.10
2016,06,04,10,35,21.10
2016,06,04,10,36,21.10
2016,06,04,10,37,21.10
2016,06,04,10,38,21.10
2016,06,04,10,39,21.10
2016,06,04,10,40,21.20
2016,06,04,10,41,21.30
2016,06,04,10,42,21.30
2016,06,04,10,43,21.40
2016,06,04,10,44,21.40
2016,06,04,10,45,21.50
2016,06,04,10,46,21.50
2016,06,04,10,47,21.60
2016,06,04,10,48,21.50
2016,06,04,10,49,21.50
2016,06,04,10,50,21.40
2016,06,04,10,51,21.40
2016,06,04,10,52,21.40
2016,06,04,10,53,21.30
2016,06,04,10,54,21.30
2016,06,04,10,55,21.30
2016,06,04,10,56,21.30
2016,06,04,10,57,21.30
2016,06,04,10,58,21.40
2016,06,04,10,59,21.50
2016,06,04,11,00,21.60
2016,06,04,11,01,21.60
2016,06,04,11,02,21.60
2016,06,04,11,03,21.60
2016,06,04,11,04,21.60
2016,06,04,11,05,21.60
2016,06,04,11,06,21.60
2016,06,04,11,07,21.60
2016,06,04,11,08,21.60
2016,06,04,11,09,21.60
2016,06,04,11,10,21.60
2016,06,04,11,11,21.70
2016,06,04,11,12,21.70
2016,06,04,11,13,21.80
2016,06,04,11,14,21.80
2016,06,04,11,15,21.80
2016,06,04,11,16,21.80
2016,06,04,11,17,21.80
2016,06,04,11,18,21.80
2016,06,04,11,19,21.80
2016,06,04,11,20,21.80
2016,06,04,11,21,21.80
2016,06,04,11,22,21.90
2016,06,04,11,23,21.90
2016,06,04,11,24,22.00
2016,06,04,11,25,22.00
2016,06,04,11,26,22.10
2016,06,04,11,27,22.20
2016,06,04,11,28,22.30
2016,06,04,11,29,22.30
2016,06,04,11,30,22.20
2016,06,04,11,31,22.30
2016,06,04,11,32,22.30
2016,06,04,11,33,22.30
2016,06,04,11,34,22.30
2016,06,04,11,35,22.30
2016,06,04,11,36,22.30
2016,06,04,11,37,22.40
2016,06,04,11,38,22.40
2016,06,04,11,39,22.40
2016,06,04,11,40,22.40
2016,06,04,11,41,22.40
2016,06,04,11,42,22.50
2016,06,04,11,43,22.50
2016,06,04,11,44,22.60
2016,06,04,11,45,22.50
2016,06,04,11,46,22.50
2016,06,04,11,47,22.50
2016,06,04,11,48,22.50
2016,06,04,11,49,22.50
2016,06,04,11,50,22.40
2016,06,04,11,51,22.40
2016,06,04,11,52,22.40
2016,06,04,11,53,22.50
2016,06,04,11,54,22.50
2016,06,04,11,55,22.50
2016,06,04,11,56,22.60
2016,06,04,11,57,22.70
2016,06,04,11,58,22.80
2016,06,04,11,59,22.80
2016,06,04,12,00,22.90
2016,06,04,12,01,23.00
2016,06,04,12,02,23.10
2016,06,04,12,03,23.20
2016,06,04,12,04,23.20
2016,06,04,12,05,23.20
2016,06,04,12,06,23.20
2016,06,04,12,07,23.30
2016,06,04,12,08,23.40
2016,06,04,12,09,23.40
2016,06,04,12,10,23.50
2016,06,04,12,11,23.50
2016,06,04,12,12,23.60
2016,06,04,12,13,23.60
2016,06,04,12,14,23.70
2016,06,04,12,15,23.70
2016,06,04,12,16,23.70
2016,06,04,12,17,23.50
2016,06,04,12,18,23.40
2016,06,04,12,19,23.30
2016,06,04,12,20,23.30
2016,06,04,12,21,23.30
2016,06,04,12,22,23.30
2016,06,04,12,23,23.30
2016,06,04,12,24,23.30
2016,06,04,12,25,23.30
2016,06,04,12,26,23.30
2016,06,04,12,27,23.30
2016,06,04,12,28,23.30
2016,06,04,12,29,23.30
2016,06,04,12,30,23.30
2016,06,04,12,31,23.30
2016,06,04,12,32,23.30
2016,06,04,12,33,23.40
2016,06,04,12,34,23.40
2016,06,04,12,35,23.40
2016,06,04,12,36,23.40
2016,06,04,12,37,23.40
2016,06,04,12,38,23.30
2016,06,04,12,39,23.30
2016,06,04,12,40,23.30
2016,06,04,12,41,23.30
2016,06,04,12,42,23.30
2016,06,04,12,43,23.30
2016,06,04,12,44,23.30
2016,06,04,12,45,23.30
2016,06,04,12,46,23.30
2016,06,04,12,47,23.30
2016,06,04,12,48,23.30
2016,06,04,12,49,23.40
2016,06,04,12,50,23.50
2016,06,04,12,51,23.60
2016,06,04,12,52,23.60
2016,06,04,12,53,23.60
2016,06,04,12,54,23.70
2016,06,04,12,55,23.80
2016,06,04,12,56,23.80
2016,06,04,12,57,23.90
2016,06,04,12,58,23.80
2016,06,04,12,59,23.80
2016,06,04,13,00,23.80
2016,06,04,13,01,23.80
2016,06,04,13,02,23.80
2016,06,04,13,03,23.80
2016,06,04,13,04,23.90
2016,06,04,13,05,23.90
2016,06,04,13,06,23.90
2016,06,04,13,07,23.90
2016,06,04,13,08,24.00
2016,06,04,13,09,24.10
2016,06,04,13,10,24.10
2016,06,04,13,11,24.20
2016,06,04,13,12,24.30
2016,06,04,13,13,24.30
2016,06,04,13,14,24.40
2016,06,04,13,15,24.40
2016,06,04,13,16,24.40
2016,06,04,13,17,24.50
2016,06,04,13,18,24.50
2016,06,04,13,19,24.60
2016,06,04,13,20,24.60
2016,06,04,13,21,24.60
2016,06,04,13,22,24.70
2016,06,04,13,23,24.60
2016,06,04,13,24,24.60
2016,06,04,13,25,24.60
2016,06,04,13,26,24.50
2016,06,04,13,27,24.50
2016,06,04,13,28,24.40
2016,06,04,13,29,24.40
2016,06,04,13,30,24.40
2016,06,04,13,31,24.40
2016,06,04,13,32,24.40
2016,06,04,13,33,24.40
2016,06,04,13,34,24.40
2016,06,04,13,35,24.30
2016,06,04,13,36,24.30
2016,06,04,13,37,24.40
2016,06,04,13,38,24.40
2016,06,04,13,39,24.50
2016,06,04,13,40,24.50
2016,06,04,13,41,24.50
2016,06,04,13,42,24.50
2016,06,04,13,43,24.50
2016,06,04,13,44,24.60
2016,06,04,13,45,24.60
2016,06,04,13,46,24.60
2016,06,04,13,47,24.50
2016,06,04,13,48,24.50
2016,06,04,13,49,24.40
2016,06,04,13,50,24.40
2016,06,04,13,51,24.50
2016,06,04,13,52,24.60
2016,06,04,13,53,24.70
2016,06,04,13,54,24.70
2016,06,04,13,55,24.80
2016,06,04,13,56,24.80
2016,06,04,13,57,24.80
2016,06,04,13,58,24.80
2016,06,04,13,59,24.80
2016,06,04,14,00,24.80
2016,06,04,14,01,24.90
2016,06,04,14,02,24.90
2016,06,04,14,03,24.90
2016,06,04,14,04,24.90
2016,06,04,14,05,24.90
2016,06,04,14,06,24.90
2016,06,04,14,07,25.00
2016,06,04,14,08,25.10
2016,06,04,14,09,25.20
2016,06,04,14,10,25.30
2016,06,04,14,11,25.30
2016,06,04,14,12,25.30
2016,06,04,14,13,25.30
2016,06,04,14,14,25.30
2016,06,04,14,15,25.20
2016,06,04,14,16,25.20
2016,06,04,14,17,25.20
2016,06,04,14,18,25.20
2016,06,04,14,19,25.10
2016,06,04,14,20,25.10
2016,06,04,14,21,25.10
2016,06,04,14,22,25.10
2016,06,04,14,23,25.10
2016,06,04,14,24,25.20
2016,06,04,14,25,25.20
2016,06,04,14,26,25.20
2016,06,04,14,27,25.20
2016,06,04,14,28,25.20
2016,06,04,14,29,25.20
2016,06,04,14,30,25.20
2016,06,04,14,31,25.30
2016,06,04,14,32,25.30
2016,06,04,14,33,25.20
2016,06,04,14,34,25.20
2016,06,04,14,35,25.20
2016,06,04,14,36,25.20
2016,06,04,14,37,25.10
2016,06,04,14,38,25.10
2016,06,04,14,39,25.10
2016,06,04,14,40,25.10
2016,06,04,14,41,25.10
2016,06,04,14,42,25.20
2016,06,04,14,43,25.30
2016,06,04,14,44,25.30
2016,06,04,14,45,25.30
2016,06,04,14,46,25.30
2016,06,04,14,47,25.30
2016,06,04,14,48,25.20
2016,06,04,14,49,25.10
2016,06,04,14,50,25.10
2016,06,04,14,51,25.00
2016,06,04,14,52,25.00
2016,06,04,14,53,24.90
2016,06,04,14,54,24.90
2016,06,04,14,55,25.00
2016,06,04,14,56,25.00
2016,06,04,14,57,25.10
2016,06,04,14,58,25.10
2016,06,04,14,59,25.10
2016,06,04,15,00,25.10
2016,06,04,15,01,25.20
2016,06,04,15,02,25.20
2016,06,04,15,03,25.20
2016,06,04,15,04,25.30
2016,06,04,15,05,25.30
2016,06,04,15,06,25.40
2016,06,04,15,07,25.50
2016,06,04,15,08,25.50
2016,06,04,15,09,25.60
2016,06,04,15,10,25.70
2016,06,04,15,11,25.80
2016,06,04,15,12,25.90
2016,06,04,15,13,25.90
2016,06,04,15,14,25.90
2016,06,04,15,15,25.90
2016,06,04,15,16,25.90
2016,06,04,15,17,25.80
2016,06,04,15,18,25.70
2016,06,04,15,19,25.70
2016,06,04,15,20,25.70
2016,06,04,15,21,25.70
2016,06,04,15,22,25.70
2016,06,04,15,23,25.60
2016,06,04,15,24,25.60
2016,06,04,15,25,25.60
2016,06,04,15,26,25.60
2016,06,04,15,27,25.70
2016,06,04,15,28,25.70
2016,06,04,15,29,25.70
2016,06,04,15,30,25.60
2016,06,04,15,31,25.60
2016,06,04,15,32,25.60
2016,06,04,15,33,25.60
2016,06,04,15,34,25.60
2016,06,04,15,35,25.70
2016,06,04,15,36,25.70
2016,06,04,15,37,25.80
2016,06,04,15,38,25.80
2016,06,04,15,39,25.90
2016,06,04,15,40,25.90
2016,06,04,15,41,26.00
2016,06,04,15,42,26.10
2016,06,04,15,43,26.10
2016,06,04,15,44,26.20
2016,06,04,15,45,26.30
2016,06,04,15,46,26.30
2016,06,04,15,47,26.30
2016,06,04,15,48,26.40
2016,06,04,15,49,26.50
2016,06,04,15,50,26.50
2016,06,04,15,51,26.70
2016,06,04,15,52,26.70
2016,06,04,15,53,26.80
2016,06,04,15,54,26.80
2016,06,04,15,55,26.80
2016,06,04,15,56,26.80
2016,06,04,15,57,26.70
2016,06,04,15,58,26.70
2016,06,04,15,59,26.70
2016,06,04,16,00,26.70
2016,06,04,16,01,26.70
2016,06,04,16,02,26.80
2016,06,04,16,03,26.90
2016,06,04,16,04,27.00
2016,06,04,16,05,27.10
2016,06,04,16,06,27.20
2016,06,04,16,07,27.30
2016,06,04,16,08,27.30
2016,06,04,16,09,27.30
2016,06,04,16,10,27.20
2016,06,04,16,11,27.20
2016,06,04,16,12,27.20
2016,06,04,16,13,27.30
2016,06,04,16,14,27.30
2016,06,04,16,15,27.30
2016,06,04,16,16,27.40
2016,06,04,16,17,27.40
2016,06,04,16,18,27.40
2016,06,04,16,19,27.40
2016,06,04,16,20,27.50
2016,06,04,16,21,27.50
2016,06,04,16,22,27.60
2016,06,04,16,23,27.60
2016,06,04,16,24,27.70
2016,06,04,16,25,27.60
2016,06,04,16,26,27.60
2016,06,04,16,27,27.60
2016,06,04,16,28,27.60
2016,06,04,16,29,27.60
2016,06,04,16,30,27.60
2016,06,04,16,31,27.50
2016,06,04,16,32,27.40
2016,06,04,16,33,27.30
2016,06,04,16,34,27.20
2016,06,04,16,35,27.20
2016,06,04,16,36,27.20
2016,06,04,16,37,27.20
2016,06,04,16,38,27.20
2016,06,04,16,39,27.20
2016,06,04,16,40,27.20
2016,06,04,16,41,27.20
2016,06,04,16,42,27.10
2016,06,04,16,43,27.10
2016,06,04,16,44,27.10
2016,06,04,16,45,27.10
2016,06,04,16,46,27.10
2016,06,04,16,47,27.10
2016,06,04,16,48,27.10
2016,06,04,16,49,27.10
2016,06,04,16,50,27.20
2016,06,04,16,51,27.20
2016,06,04,16,52,27.20
2016,06,04,16,53,27.20
2016,06,04,16,54,27.20
2016,06,04,16,55,27.20
2016,06,04,16,56,27.10
2016,06,04,16,57,27.10
2016,06,04,16,58,27.10
2016,06,04,16,59,27.10
2016,06,04,17,00,27.10
2016,06,04,17,01,27.10
2016,06,04,17,02,27.20
2016,06,04,17,03,27.20
2016,06,04,17,04,27.20
2016,06,04,17,05,27.20
2016,06,04,17,06,27.20
2016,06,04,17,07,27.20
2016,06,04,17,08,27.20
2016,06,04,17,09,27.20
2016,06,04,17,10,27.20
2016,06,04,17,11,27.20
2016,06,04,17,12,27.30
2016,06,04,17,13,27.30
2016,06,04,17,14,27.40
2016,06,04,17,15,27.50
2016,06,04,17,16,27.50
2016,06,04,17,17,27.60
2016,06,04,17,18,27.60
2016,06,04,17,19,27.60
2016,06,04,17,20,27.60
2016,06,04,17,21,27.60
2016,06,04,17,22,27.60
2016,06,04,17,23,27.70
2016,06,04,17,24,27.70
2016,06,04,17,25,27.80
2016,06,04,17,26,27.80
2016,06,04,17,27,27.80
2016,06,04,17,28,27.90
2016,06,04,17,29,27.90
2016,06,04,17,30,28.00
2016,06,04,17,31,28.10
2016,06,04,17,32,28.10
2016,06,04,17,33,28.20
2016,06,04,17,34,28.30
2016,06,04,17,35,28.30
2016,06,04,17,36,28.30
2016,06,04,17,37,28.30
2016,06,04,17,38,28.30
2016,06,04,17,39,28.30
2016,06,04,17,40,28.30
2016,06,04,17,41,28.30
2016,06,04,17,42,28.30
2016,06,04,17,43,28.20
2016,06,04,17,44,28.20
2016,06,04,17,45,28.10
2016,06,04,17,46,28.10
2016,06,04,17,47,28.10
2016,06,04,17,48,28.10
2016,06,04,17,49,28.10
2016,06,04,17,50,28.10
2016,06,04,17,51,28.00
2016,06,04,17,52,28.00
2016,06,04,17,53,28.10
2016,06,04,17,54,28.10
2016,06,04,17,55,28.10
2016,06,04,17,56,28.20
2016,06,04,17,57,28.20
2016,06,04,17,58,28.20
2016,06,04,17,59,28.20
2016,06,04,18,00,28.20
2016,06,04,18,01,28.10
2016,06,04,18,02,28.10
2016,06,04,18,03,28.10
2016,06,04,18,04,28.10
2016,06,04,18,05,28.10
2016,06,04,18,06,28.10
2016,06,04,18,07,28.00
2016,06,04,18,08,28.10
2016,06,04,18,09,28.10
2016,06,04,18,10,28.10
2016,06,04,18,11,28.20
2016,06,04,18,12,28.20
2016,06,04,18,13,28.20
2016,06,04,18,14,28.20
2016,06,04,18,15,28.10
2016,06,04,18,16,28.10
2016,06,04,18,17,28.10
2016,06,04,18,18,28.10
2016,06,04,18,19,28.10